Location: Emblem
(62.4273°N, 6.4710°E)
Time: 01:27:44
(UTC+02:00)

UWE-3 - Pass Details

Date: 27 March 2023
Orbit: 577 x 669 km, 97.7° (Epoch: 06 June)

Event Time Altitude Azimuth Distance (km) Brightness Sun altitude
Rises 05:05:55 0° 17° (NNE) 3,033 ? -14.4°
Reaches altitude 10° 05:08:10 10° 17° (NNE) 2,108 ? -14.2°
Maximum altitude 05:12:48 89° 302° (WNW) 668 ? -13.8°
Enters shadow 05:16:38 14° 200° (SSW) 1,783 ? -13.4°
